Change the Weather History Date:

Wednesday, December 5, 2012

  Actual Average Record
Temperature  
Mean Temperature 76 °F -  
Max Temperature 80 °F 76 °F 82 °F (2004)
Min Temperature 73 °F 69 °F 46 °F (2002)
Cooling Degree Days 12    
Growing Degree Days 26 (Base 50)    
Moisture  
Dew Point 73 °F    
Average Humidity 90    
Maximum Humidity 100    
Minimum Humidity 75    
Precipitation  
Precipitation 0.00 in - - ()
Sea Level Pressure  
Sea Level Pressure 30.04 in    
Wind  
Wind Speed 3 mph (East)    
Max Wind Speed 8 mph    
Max Gust Speed -    
Visibility 9 miles    
Events Thunderstorm    
Averages and records for this station are not official NWS values.
T = Trace of Precipitation, MM = Missing Value Source: NWS Daily Summary

Daily Weather History Graph

Daily Weather History Graph

Search for Another Location

Airport or City:

Trip Planner

Search our weather history database for the weather conditions in past years. The results will help you decide how hot, cold, wet, or windy it might be!

Date:

Astronomy

Dec. 05, 2012 Rise Set
Actual Time 6:55 AM HST 5:48 PM HST
Civil Twilight 6:31 AM HST 6:12 PM HST
Nautical Twilight 6:03 AM HST 6:40 PM HST
Astronomical Twilight 5:36 AM HST 7:07 PM HST
Moon No Moon Rise 11:58 AM HST (12/5)
Length of Visible Light 11h 41m
Length of Day
10h 53m
Waning Gibbous, 58% of the Moon is Illuminated
Dec 5
Waning Gibbous
Dec 6
Last Quarter
Dec 12
New
Dec 19
First Quarter
Dec 28
Full

Hourly Weather History & Observations

Time (HST) Temp. Heat Index Dew Point Humidity Pressure Visibility Wind Dir Wind Speed Gust Speed Precip Events Conditions
12:01 AM 75.2 °F - 75.2 °F 100% 30.06 in 6.2 mi SE 4.6 mph - N/A   Mostly Cloudy
12:57 AM 75.2 °F - 75.0 °F 99% 30.05 in 10.0 mi Calm Calm - N/A   Mostly Cloudy
1:41 AM - - - N/A% 30.05 in 6.2 mi Calm Calm - N/A Thunderstorm Thunderstorm
1:57 AM - - - N/A% 30.03 in 10.0 mi WSW 3.5 mph - N/A   Overcast
2:57 AM 75.2 °F - 75.0 °F 99% 30.03 in 10.0 mi SE 6.9 mph - N/A   Overcast
4:57 AM 73.4 °F - 72.0 °F 95% 30.01 in 10.0 mi Calm Calm - N/A   Clear
5:57 AM 73.4 °F - 70.0 °F 89% 30.04 in 10.0 mi Calm Calm - N/A   Mostly Cloudy
6:57 AM 75.2 °F - 73.9 °F 96% 30.04 in 10.0 mi Calm Calm - N/A   Mostly Cloudy
7:57 AM 75.2 °F - 75.0 °F 99% 30.07 in 10.0 mi Calm Calm - N/A   Mostly Cloudy
8:57 AM 77.0 °F - 75.0 °F 94% 30.07 in 10.0 mi Calm Calm - N/A   Mostly Cloudy
9:57 AM 77.0 °F - 75.0 °F 94% 30.10 in 10.0 mi Calm Calm - N/A   Mostly Cloudy
10:10 AM 77.0 °F - 73.4 °F 89% 30.11 in 6.2 mi Calm Calm - N/A   Overcast
10:22 AM 77.0 °F - 73.4 °F 89% 30.11 in 6.2 mi Calm Calm - N/A   Mostly Cloudy
10:57 AM 78.8 °F - 73.9 °F 85% 30.08 in 10.0 mi North 6.9 mph - N/A   Clear
11:57 AM 78.8 °F - 75.0 °F 88% 30.05 in 10.0 mi NNW 4.6 mph - N/A   Partly Cloudy
12:57 PM 79.7 °F - 73.0 °F 80% 30.01 in 10.0 mi North 3.5 mph - N/A   Partly Cloudy
1:57 PM 80.6 °F 85.2 °F 73.0 °F 78% 29.99 in 10.0 mi North 3.5 mph - N/A   Clear
2:57 PM 80.6 °F 84.7 °F 72.0 °F 75% 29.99 in 10.0 mi North 5.8 mph - N/A   Mostly Cloudy
3:57 PM 80.6 °F 85.2 °F 73.0 °F 78% 30.00 in 10.0 mi Calm Calm - N/A   Mostly Cloudy
4:57 PM 78.8 °F - 73.0 °F 82% 30.01 in 10.0 mi Calm Calm - N/A   Clear
5:57 PM 75.2 °F - 73.9 °F 96% 30.02 in 10.0 mi Calm Calm - N/A   Mostly Cloudy
6:12 PM 75.2 °F - 73.4 °F 94% 30.04 in 6.2 mi Calm Calm - N/A   Overcast
6:30 PM 75.2 °F - 73.4 °F 94% 30.03 in 6.2 mi Variable 5.8 mph - N/A   Overcast
6:53 PM 75.2 °F - 73.4 °F 94% 30.03 in 10.0 mi ESE 5.8 mph - N/A   Mostly Cloudy
6:57 PM 75.2 °F - 73.0 °F 93% 30.02 in 10.0 mi ESE 6.9 mph - N/A   Mostly Cloudy
7:12 PM 75.2 °F - 73.4 °F 94% 30.04 in 6.2 mi ESE 8.1 mph - N/A   Scattered Clouds
7:57 PM 76.1 °F - 73.0 °F 90% 30.03 in 10.0 mi ESE 8.1 mph - N/A   Partly Cloudy
8:26 PM 77.0 °F - 71.6 °F 83% 30.05 in 6.2 mi Variable 3.5 mph - N/A   Mostly Cloudy
8:38 PM 77.0 °F - 71.6 °F 83% 30.05 in 6.2 mi SE 3.5 mph - N/A   Scattered Clouds
8:48 PM 77.0 °F - 71.6 °F 83% 30.05 in 6.2 mi Calm Calm - N/A   Mostly Cloudy
8:57 PM 77.0 °F - 72.0 °F 84% 30.04 in 10.0 mi ESE 3.5 mph - N/A   Mostly Cloudy
9:05 PM - - - N/A% 30.05 in 6.2 mi Variable 3.5 mph - N/A   Scattered Clouds
9:57 PM 75.2 °F - 72.0 °F 90% 30.03 in 10.0 mi Variable 5.8 mph - N/A   Partly Cloudy
10:57 PM 75.2 °F - 71.1 °F 87% 30.02 in 10.0 mi Calm Calm - N/A   Clear
11:31 PM - - - N/A% 30.02 in 6.2 mi Calm Calm - N/A   Mostly Cloudy
11:57 PM 73.4 °F - 71.1 °F 92% 30.01 in 10.0 mi Calm Calm - N/A   Mostly Cloudy